COSMOS 2239

导读

COSMOS 2239(宇宙-2239)是独联体(CIS)继承苏联航天遗产后,于1993年4月1日08时发射的军用卫星,隶属于俄罗斯“宇宙”(Kosmos)卫星系列。该系列自苏联时期开始持续发射,涵盖军事侦察、导弹预警、通信等多种国防任务。作为90年代初独联体时期发射的航天器,它延续了苏联航天体系的应用方向,主要服务于战略安全与空间监测需求,是俄罗斯维持天基军事能力建设中的一环。

基本信息
目录编号:
22590
目录名称:
COSMOS 2239
国际标识:
1993-020A
轨道中心:
EARTH
卫星名称:
COSMOS 2239
卫星全名:
--
卫星状态:
在轨 (已飞行12129 天)
发射日期:
1993-04-01 UTC
国别 :
俄罗斯(独联体) (CIS)
星等 :
--
轨道信息
数据来源 国际轨道数据 AOE轨道数据
星历时间 2026-06-16T15:58:52+0800
8小时前
查看轨道信息
2026-06-16T06:00:00+0800
18小时前
查看轨道信息
半长轴 7357.546km 7357.546km
偏心率 0.0021735 0.0021657
轨道倾角 82.931° 82.931°
近地点辐角 297.817° 299.069°
升交点赤经 141.391° 141.699°
平近点角 173.641° 273.972°
近地点 963.417km 963.474km
远地点 995.401km 995.344km
周期 104.679分钟 104.679分钟
每日圈数 13.756353 13.756354
详细信息
使用方式:
暂无
2D轨道图
3D轨道图
轨道高度分析图
轨道倾角分析图
轨道综合分析图
查看轨道综合分析图